Regional Weather Roundup
Issued by NWS Grand Forks, ND

Home | Current Version | Previous Version | Graphics & Text | Print | Product List | Glossary On
Versions: 1 2 3 4 5 6 7 8 9 10 11 12 13 14 15 16 17 18 19 20 21 22 23 24 25 26 27 28 29 30 31 32 33 34 35 36 37 38 39 40 41 42 43 44 45 46 47 48 49 50
000
ASUS43 KFGF 230210
RWRFGF
PRAIRIE TO PINES  WEATHER ROUNDUP
NATIONAL WEATHER SERVICE EASTERN NORTH DAKOTA/GRAND FORKS ND
900 PM CDT THU JUN 22 2017

 **SATELLITE DATA USED TO AUGMENT SKY COVER AT AUTOMATED STATIONS**
 *****  WEATHER ACROSS EASTERN NORTH DAKOTA  *****

CITY           SKY/WX    TMP DP  RH WIND       PRES   REMARKS
GRAND FORKS    MOCLDY    69  43  38 W16       29.68R
GRAND FRKS AFB FAIR      67  42  41 NW12G21   29.69R
DEVILS LAKE    FAIR      62  43  49 W22G35    29.73R
FARGO          FAIR      71  37  28 W10       29.71F
WAHPETON ARPT  FAIR      64  39  39 NW8       29.75S
$$

 ***** WEATHER ACROSS CENTRAL AND WESTERN NORTH DAKOTA  *****

CITY           SKY/WX    TMP DP  RH WIND       PRES   REMARKS
BISMARCK       FAIR      70  34  26 NW20G31   29.84R
MINOT          CLOUDY    61  48  62 W23G29    29.80R
JAMESTOWN      FAIR      68  38  33 NW16      29.76R
MINOT AFB      CLOUDY    60  50  69 W23G30    29.77S
GARRISON         N/A     59  44  57 NW25G35   29.84R
WILLISTON      LGT RAIN  57  53  86 NW23G32   29.93R
DICKINSON      FAIR      59  37  44 NW25G39   29.92R
HETTINGER      FAIR      65  31  28 NW26G35   29.95R
$$

 *****  OTHER AIRPORT OBSERVATIONS IN OUR AREA  *****

CITY           SKY/WX    TMP DP  RH WIND       PRES   REMARKS
WALHALLA       NOT AVBL
GRAFTON AIRPOR FAIR      66  45  45 W20       29.68S
VALLEY CITY AR FAIR      68  37  32 W12       29.76S
CANDO          NOT AVBL
CAVALIER APRT  MOCLDY    63  46  55 W15G25    29.64S
GWINNER        PTCLDY    68  43  40 W7        29.77S
SHEYENNE NWR     N/A     71  41  33 W6        29.95S
ROLLA            N/A     57  46  67 W15G24    29.71R
 ***** THE ABOVE OBSERVATIONS ARE NON NWS ARE NOT QUALITY
       CONTROLLED AND MAY MIS-REPORT RAIN FOR SNOW...
$$

  *****  WEATHER ACROSS NORTHERN MINNESOTA  *****

CITY           SKY/WX    TMP DP  RH WIND       PRES   REMARKS
FLAG ISLAND    FAIR      63  43  48 W15G24    29.57F
WARROAD        FAIR      63  46  55 W14G23    29.62S
ROSEAU           N/A     63  46  55 W10       29.62F
HALLOCK        CLOUDY    64  45  48 W17G26    29.64R
THF RVR FALLS  FAIR      65  44  46 W12       29.68S
BAUDETTE       FAIR      64  43  46 W12G20    29.62R
WASKISH        FAIR      66  46  48 W14G23    29.65S
CROOKSTON      FAIR      66  43  42 NW12      29.69R
STEPHEN NDAWN    N/A     66  41  39 W17         N/A
GREENBUSH NDAW   N/A     63  45  51 W8          N/A
$$
  *****  WEATHER ACROSS CENTRAL AND WEST MINNESOTA  *****

CITY           SKY/WX    TMP DP  RH WIND       PRES   REMARKS
FOSSTON        FAIR      64  43  45 SW6       29.70F
BEMIDJI        FAIR      66  39  37 W9        29.69S
PARK RAPIDS    FAIR      68  36  30 W9        29.72S
ELBOW LAKE     FAIR      68  45  43 W8        29.77S
WADENA         FAIR      66  43  42 W7        29.74S
DETROIT LAKES  FAIR      68  36  30 W7        29.75S
MOORHEAD       FAIR      72  36  26 W12       29.73S
FERGUS FALLS   FAIR      66  46  48 NW8       29.73S
MORRIS MN      FAIR      70  55  60 SW7       29.76F
STAPLES        FAIR      68  41  37 W8        29.74S
$$
  *****  WEATHER ELSEWHERE ACROSS MINNESOTA  *****

CITY           SKY/WX    TMP DP  RH WIND       PRES   REMARKS
DULUTH         FAIR      67  50  54 W16G24    29.69R
INTRNTL FALLS  FAIR      65  38  36 W7        29.62R
ELY            FAIR      63  52  67 CALM      29.65S
CLOQUET        MOCLDY    63  54  72 SW7       29.70S
WHEATON        FAIR      70  45  40 NW5       29.78S
BRAINERD       FAIR      70  48  45 W9        29.73R
HIBBING        FAIR      65  46  50 W6        29.67R
ALEXANDRIA     FAIR      69  54  58 SW10      29.78R
SAINT CLOUD    FAIR      66  53  63 W8        29.75S
MINNEAPOLIS    MOCLDY    69  61  75 NW9       29.74S
$$

  *****  WEATHER ACROSS SOUTH DAKOTA  *****

CITY           SKY/WX    TMP DP  RH WIND       PRES   REMARKS
SIOUX FALLS    MOCLDY    66  53  63 N7        29.81R
BROOKINGS      FAIR      66  56  70 NW5       29.83R
WATERTOWN      FAIR      66  58  75 SW6       29.81R
HURON          FAIR      72  54  53 SW3       29.82R
SISSETON         N/A     70  46  42 NW6       29.76S
ABERDEEN       FAIR      69  42  37 NW7       29.80R
MITCHELL       FAIR      71  48  43 NW3       29.84R
PIERRE         FAIR      71  48  43 NW9       29.85R
MOBRIDGE       FAIR      74  33  22 NW16      29.83R
RAPID CITY     FAIR      69  34  27 N24G31    29.96R
$$

  *****  SOME WEATHER IN NEARBY STATES *****

CITY           SKY/WX    TMP DP  RH WIND       PRES   REMARKS
GLASGOW MT     CLOUDY    54  45  71 NW22G29   30.09R
GREAT FALLS MT FAIR      58  37  45 NE8       30.24R
CHEYENNE WY    FAIR      71  40  32 NE12      30.05R
SCOTTSBLUFF NE CLOUDY    74  47  38 E14       29.95R
OMAHA NE       MOCLDY    83  68  60 N9        29.66R
DES MOINES IA  FAIR      81  71  71 S6        29.63F
DAVENPORT IA   FAIR      78  71  79 S9        29.69F
CHICAGO IL     MOCLDY    81  70  69 S16G22    29.71S
EAU CLAIRE WI  LGT RAIN  65  64  97 CALM      29.72F
LA CROSSE WI   CLOUDY    70  68  93 CALM      29.69F
$$

  *****  SOME NATIONAL WEATHER *****

CITY           SKY/WX    TMP DP  RH WIND       PRES   REMARKS
LA GUARDIA NY  MOCLDY    77  69  76 S9        29.90S
RALEIGH NC     CLOUDY    74  71  91 SW7       30.07R
ATLANTA GA     MOCLDY    75  72  90 SE6       30.04R
NEW ORLEANS LA FAIR      81  77  88 S8        29.84S
OKLAHOMA CITY  FAIR      80  66  62 S6        29.67R
ALBUQUERQUE NM FAIR      97  23   7 W18       29.88R HX  90
SALT LAKE CITY FAIR      85  31  14 NW8       30.00S
LOS ANGELES CA FAIR      67  60  78 W10       29.82R
BOISE ID       FAIR      80  28  15 NW23G29   30.06R
SEATTLE WA     FAIR      73  37  27 N16       30.23S
$$

*** WEATHER ACROSS MANITOBA...SASKATCHEWAN AND ONTARIO ***
                ***ONTARIO***

CITY           SKY/WX    TMP DP  RH WIND       PRES   REMARKS
GERALDTON      MOCLDY    61  46  59 NW2       29.59R
THUNDER BAY    MOCLDY    68  46  45 SW6       29.57S
SIOUX LOOKOUT  MOCLDY    63  43  48 W16G25    29.56R THUNDER
TORONTO        CLOUDY    66  61  82 SE3       29.77F
BIG TROUT LK   PTCLDY    57  52  82 E6        29.53R
PICKLE LAKE    MOCLDY    63  46  55 S6        29.52S
DRYDEN         LGT RAIN  55  48  76 W23G37    29.58R
KENORA         LGT RAIN  57  46  67 W8        29.57S
$$
                *** MANITOBA***

CITY           SKY/WX    TMP DP  RH WIND       PRES   REMARKS
BRANDON        MOCLDY    59  50  72 W14       29.65R
DAUPHIN        CLOUDY    57  55  94 N3        29.62R
ISLAND LAKE    MOCLDY    61  52  72 SE3       29.50R
PILOT MOUND      N/A     57  46  67 W14G22      N/A
THE PAS        LGT RAIN  55  52  88 NW16G23   29.69R
THOMPSON       LGT RAIN  57  55  94 N10G17    29.59R
WINNIPEG       LGT RAIN  57  52  82 W13G24    29.57S
LYNN LAKE      CLOUDY    50  45  81 N14G22    29.77R
CHURCHILL      CLOUDY    39  36  87 NE23      29.78R
GILLAM         MOCLDY    57  54  88 N17       29.58R
$$
                ***SASKATCHEWAN***

CITY           SKY/WX    TMP DP  RH WIND       PRES   REMARKS
ESTEVAN        LGT RAIN  55  54  94 NW25G36   29.86R
KINDERSLEY     MOSUNNY   55  39  54 NW16      30.11R
LLOYDMINSTER   MOSUNNY   55  39  54 NW13G18   30.11R
PRINCE ALBERT  PTSUNNY   54  41  62 NW20G26   29.96R
REGINA         CLOUDY    52  46  82 NW23G29   29.95R
YORKTON        CLOUDY    55  50  82 NW23G33   29.77R
N. BATTLEFORD  SUNNY     55  37  50 NW14G22   30.08R
LA RONGE       LGT RAIN  54  41  62 N15G30    29.92R
SASKATOON      PTSUNNY   55  39  54 N15G29    30.03R
SWIFT CURRENT  PTSUNNY   52  43  71 NW21G26   30.07R
$$
NOTE: THESE ARE AUTOMATED STATIONS WITH LIMITED QUALITY CONTROL
      "FAIR" INDICATES FEW OR NO CLOUDS BELOW 12,000 FEET WITH NO
      SIGNIFICANT WEATHER AND/OR OBSTRUCTIONS TO VISIBILITY.
      SKY/WX - SKY CONDITION AND SIGNIFICANT WEATHER.
      TMP - AIR TEMPERATURE.    DP   - DEWPOINT TEMPERATURE.
      RH  - RELATIVE HUMIDITY.  PRES - PRESSURE.
      HX  - HEAT INDEX.         WCI  - WIND CHILL INDEX.
$



USA.gov is the U.S. government's official web portal to all federal, state and local government web resources and services.